Weather History for KCAR - December, 2013

Change the Weather History Date:

Sunday, December 1, 2013

  Actual Average Record
Temperature  
Mean Temperature 23 °F 25 °F  
Max Temperature 27 °F 32 °F 48 °F (1975)
Min Temperature 18 °F 18 °F -6 °F (1941)
Degree Days  
Heating Degree Days 42 40  
Month to date heating degree days 42 40  
Since 1 July heating degree days 1998 2185  
Cooling Degree Days 0 0  
Month to date cooling degree days 0 0  
Year to date cooling degree days 192 180  
Moisture  
Dew Point 19 °F    
Average Humidity 87    
Maximum Humidity 92    
Minimum Humidity 81    
Precipitation  
Precipitation 0.06 in 0.12 in 0.96 in (2004)
Month to date precipitation 0.06 0.12  
Year to date precipitation 46.64 35.34  
Snow  
Snow 0.80 in 0.60 in 11.40 in (1964)
Month to date snowfall 0.8 0.6  
Since 1 July snowfall 10.9 12.8  
Snow Depth 1.00 in    
Sea Level Pressure  
Sea Level Pressure 30.27 in    
Wind  
Wind Speed 4 mph (SE)    
Max Wind Speed 10 mph    
Max Gust Speed 12 mph    
Visibility 6 miles    
Events Snow    
T = Trace of Precipitation, MM = Missing Value Source: NWS Daily Summary

Daily Weather History Graph

Daily Weather History Graph

Search for Another Location

Airport or City:

Trip Planner

Search our weather history database for the weather conditions in past years. The results will help you decide how hot, cold, wet, or windy it might be!

Date:

Astronomy

Dec. 01, 2013 Rise Set
Actual Time 6:56 AM EST 3:45 PM EST
Civil Twilight 6:22 AM EST 4:19 PM EST
Nautical Twilight 5:44 AM EST 4:57 PM EST
Astronomical Twilight 5:07 AM EST 5:34 PM EST
Moon 5:05 AM EST (12/1) 2:56 PM EST (12/1)
Length of Visible Light 9h 57m
Length of Day
8h 48m
Waning Crescent, 2% of the Moon is Illuminated
Dec 1
Waning Crescent
Dec 2
New
Dec 9
First Quarter
Dec 17
Full
Dec 25
Last Quarter

Hourly Weather History & Observations

Time (EST) Temp. Windchill Dew Point Humidity Pressure Visibility Wind Dir Wind Speed Gust Speed Precip Events Conditions
12:01 AM 18.0 °F 8.7 °F 14.0 °F 84% 30.36 in 1.8 mi SE 6.9 mph - 0.00 in Snow Light Snow
12:25 AM 18.0 °F 8.7 °F 14.0 °F 84% 30.35 in 1.2 mi SSE 6.9 mph - 0.01 in Snow Light Snow
12:32 AM 18.0 °F 7.7 °F 14.0 °F 84% 30.35 in 2.0 mi SSE 8.1 mph - 0.02 in Snow Light Snow
12:45 AM 18.0 °F 8.7 °F 14.0 °F 84% 30.34 in 2.5 mi SSE 6.9 mph - 0.02 in Snow Light Snow
12:54 AM 18.0 °F 8.7 °F 15.1 °F 88% 30.38 in 3.0 mi SSE 6.9 mph - 0.02 in Snow Light Snow
1:43 AM 19.0 °F 13.9 °F 15.1 °F 85% 30.32 in 2.5 mi South 3.5 mph - 0.00 in Snow Light Snow
1:50 AM 19.4 °F 12.8 °F 15.8 °F 86% 30.32 in 3.0 mi South 4.6 mph - 0.00 in Snow Light Snow
1:54 AM 19.0 °F 12.3 °F 15.1 °F 85% 30.37 in 2.5 mi South 4.6 mph - 0.00 in Snow Light Snow
2:03 AM 19.0 °F 11.1 °F 15.1 °F 85% 30.32 in 3.0 mi South 5.8 mph - 0.00 in Snow Light Snow
2:29 AM 19.0 °F 11.1 °F 15.1 °F 85% 30.30 in 2.0 mi SSE 5.8 mph - 0.01 in Snow Light Snow
2:42 AM 19.0 °F 11.1 °F 15.1 °F 85% 30.29 in 2.0 mi SSE 5.8 mph - 0.01 in Snow Light Snow
2:49 AM 19.4 °F 10.4 °F 15.8 °F 86% 30.29 in 1.8 mi SSE 6.9 mph - 0.01 in Snow Light Snow
2:54 AM 19.0 °F 10.0 °F 15.1 °F 85% 30.34 in 2.5 mi SSE 6.9 mph - 0.01 in Snow Light Snow
3:01 AM 19.0 °F 11.1 °F 16.0 °F 88% 30.29 in 5.0 mi SSE 5.8 mph - 0.00 in Snow Light Snow
3:26 AM 19.0 °F 10.0 °F 16.0 °F 88% 30.28 in 1.8 mi South 6.9 mph - 0.00 in Snow Light Snow
3:37 AM 19.0 °F 10.0 °F 16.0 °F 88% 30.28 in 1.2 mi South 6.9 mph - 0.01 in Snow Light Snow
3:45 AM 19.0 °F 10.0 °F 16.0 °F 88% 30.27 in 2.0 mi South 6.9 mph - 0.01 in Snow Light Snow
3:54 AM 19.0 °F 11.1 °F 16.0 °F 88% 30.32 in 9.0 mi South 5.8 mph - 0.01 in   Overcast
4:54 AM 19.0 °F 12.3 °F 16.0 °F 88% 30.30 in 10.0 mi South 4.6 mph - N/A   Overcast
5:54 AM 19.9 °F 14.9 °F 17.1 °F 89% 30.30 in 10.0 mi South 3.5 mph - N/A   Overcast
6:54 AM 19.9 °F 14.9 °F 17.1 °F 89% 30.30 in 10.0 mi South 3.5 mph - N/A   Overcast
7:54 AM 21.0 °F - 18.0 °F 88% 30.30 in 10.0 mi Calm Calm - N/A   Overcast
8:54 AM 21.9 °F 17.2 °F 19.0 °F 89% 30.30 in 8.0 mi SE 3.5 mph - N/A   Overcast
9:26 AM 21.9 °F - 19.9 °F 92% 30.26 in 2.0 mi Calm Calm - 0.00 in Snow Light Snow
9:35 AM 23.0 °F - 19.9 °F 88% 30.26 in 1.5 mi Calm Calm - 0.00 in Snow Light Snow
9:54 AM 23.0 °F 18.4 °F 19.9 °F 88% 30.30 in 1.5 mi SSE 3.5 mph - 0.00 in Snow Light Snow
10:28 AM 24.1 °F - 21.0 °F 88% 30.24 in 2.0 mi Calm Calm - 0.01 in Snow Light Snow
10:54 AM 24.1 °F - 21.0 °F 88% 30.27 in 2.5 mi Calm Calm - 0.01 in Snow Light Snow
10:59 AM 25.0 °F 19.3 °F 21.0 °F 85% 30.22 in 1.2 mi South 4.6 mph - 0.00 in Snow Light Snow
11:16 AM 25.0 °F 20.7 °F 21.9 °F 88% 30.22 in 1.0 mi South 3.5 mph - 0.00 in Snow Light Snow
11:25 AM 26.1 °F 21.9 °F 21.9 °F 84% 30.21 in 2.0 mi South 3.5 mph - 0.01 in Snow Light Snow
11:41 AM 26.1 °F - 23.0 °F 88% 30.21 in 3.0 mi Calm Calm - 0.01 in Snow Light Snow
11:54 AM 26.1 °F 21.9 °F 21.9 °F 84% 30.25 in 4.0 mi South 3.5 mph - 0.01 in Snow Light Snow
12:28 PM 27.0 °F 21.6 °F 21.9 °F 81% 30.19 in 10.0 mi South 4.6 mph - 0.00 in   Overcast
12:32 PM 26.1 °F - 21.9 °F 84% 30.19 in 10.0 mi Calm Calm - 0.00 in   Overcast
12:49 PM 26.6 °F 21.2 °F 21.2 °F 80% 30.19 in 10.0 mi ESE 4.6 mph - 0.00 in   Overcast
12:54 PM 26.1 °F 20.5 °F 21.0 °F 81% 30.24 in 10.0 mi SE 4.6 mph - 0.00 in   Overcast
1:02 PM 26.1 °F 21.9 °F 21.0 °F 81% 30.19 in 10.0 mi ESE 3.5 mph - N/A   Overcast
1:10 PM 26.1 °F 20.5 °F 21.9 °F 84% 30.19 in 10.0 mi ESE 4.6 mph - N/A   Overcast
1:54 PM 26.1 °F 21.9 °F 21.9 °F 84% 30.23 in 10.0 mi SSE 3.5 mph - N/A   Overcast
2:07 PM 27.0 °F - 21.9 °F 81% 30.19 in 10.0 mi Calm Calm - N/A   Overcast
2:54 PM 27.0 °F - 21.0 °F 78% 30.23 in 10.0 mi Calm Calm - N/A   Overcast
3:54 PM 26.1 °F 21.9 °F 21.0 °F 81% 30.24 in 10.0 mi ENE 3.5 mph - N/A   Overcast
4:08 PM 25.0 °F - 21.0 °F 85% 30.19 in 10.0 mi Calm Calm - N/A   Overcast
4:52 PM 24.8 °F 19.1 °F 21.2 °F 86% 30.19 in 10.0 mi NE 4.6 mph - N/A   Overcast
4:54 PM 25.0 °F 19.3 °F 21.0 °F 85% 30.23 in 10.0 mi NE 4.6 mph - N/A   Overcast
5:54 PM 24.1 °F 18.2 °F 21.0 °F 88% 30.24 in 10.0 mi NE 4.6 mph - N/A   Mostly Cloudy
6:54 PM 23.0 °F 17.0 °F 19.9 °F 88% 30.24 in 10.0 mi ENE 4.6 mph - N/A   Overcast
7:54 PM 23.0 °F 18.4 °F 19.9 °F 88% 30.24 in 10.0 mi NE 3.5 mph - N/A   Overcast
8:54 PM 23.0 °F 17.0 °F 19.9 °F 88% 30.24 in 10.0 mi NNE 4.6 mph - N/A   Overcast
9:54 PM 23.0 °F 17.0 °F 19.0 °F 85% 30.23 in 10.0 mi NNE 4.6 mph - N/A   Overcast
10:54 PM 21.0 °F 14.6 °F 18.0 °F 88% 30.22 in 10.0 mi NNE 4.6 mph - N/A   Mostly Cloudy
11:54 PM 21.9 °F 17.2 °F 19.0 °F 89% 30.21 in 10.0 mi NNE 3.5 mph - N/A   Overcast